Вернуться в каталог

BREEZE-M DEB

АктивенHEO
NORAD 38601·DEBRIS·🇷🇺 Russia

Запущен Mar 14, 2008 с Baikonur Cosmodrome

Loading…

Ближайшие Пролёты (ближайшие 24 часа)

TLE

СвежийSource: Space-Track

Эпоха: Sep 13, 2026, 11:41 UTC

1 38601U 08011AY  26256.48683264  .00033596  00000-0  25552-2 0  9997
2 38601  48.0870 325.9792 5162233 242.3712  56.6146  5.40706055241936

Отслеживайте BREEZE-M DEB в реальном времени с AllMySat

Download on the App Store